Weather History for PHOG - January, 2014

Change the Weather History Date:

Tuesday, January 14, 2014

  Actual Average Record
Temperature  
Mean Temperature 75 °F 72 °F  
Max Temperature 81 °F 81 °F 88 °F (1953)
Min Temperature 68 °F 63 °F 55 °F (1966)
Degree Days  
Heating Degree Days 0 0  
Month to date heating degree days 0 0  
Since 1 July heating degree days 0 0  
Cooling Degree Days 10 7  
Month to date cooling degree days 113 98  
Year to date cooling degree days 113 98  
Growing Degree Days 25 (Base 50)    
Moisture  
Dew Point 67 °F    
Average Humidity 80    
Maximum Humidity 97    
Minimum Humidity 62    
Precipitation  
Precipitation T in 0.09 in 1.82 in (1992)
Month to date precipitation 1.21 1.36  
Year to date precipitation 1.21 1.36  
Snow  
Snow 0.00 in - - ()
Month to date snowfall 0.0  
Since 1 July snowfall 0.0  
Snow Depth 0.00 in    
Sea Level Pressure  
Sea Level Pressure 29.90 in    
Wind  
Wind Speed 8 mph (SSW)    
Max Wind Speed 20 mph    
Max Gust Speed 24 mph    
Visibility 10 miles    
Events Rain    
T = Trace of Precipitation, MM = Missing Value Source: NWS Daily Summary

Daily Weather History Graph

Daily Weather History Graph

Search for Another Location

Airport or City:

Trip Planner

Search our weather history database for the weather conditions in past years. The results will help you decide how hot, cold, wet, or windy it might be!

Date:

Astronomy

Jan. 14, 2014 Rise Set
Actual Time 7:05 AM HST 6:04 PM HST
Civil Twilight 6:41 AM HST 6:28 PM HST
Nautical Twilight 6:14 AM HST 6:55 PM HST
Astronomical Twilight 5:47 AM HST 7:22 PM HST
Moon 5:15 PM HST (1/14) 5:51 AM HST (1/14)
Length of Visible Light 11h 47m
Length of Day
10h 59m
Waxing Gibbous, 99% of the Moon is Illuminated
Jan 14
Waxing Gibbous
Jan 15
Full
Jan 23
Last Quarter
Jan 30
New
Feb 6
First Quarter

Hourly Weather History & Observations

Time (HST) Temp. Heat Index Dew Point Humidity Pressure Visibility Wind Dir Wind Speed Gust Speed Precip Events Conditions
12:54 AM - - - N/A% 29.93 in 10.0 mi South 3.5 mph - N/A   Clear
1:54 AM - - - N/A% 29.91 in 10.0 mi South 4.6 mph - N/A   Clear
2:54 AM - - - N/A% 29.90 in 10.0 mi SSW 4.6 mph - N/A   Clear
3:54 AM - - - N/A% 29.90 in 10.0 mi South 4.6 mph - N/A   Clear
4:54 AM - - - N/A% 29.90 in 10.0 mi South 5.8 mph - N/A   Clear
5:54 AM 69.8 °F - 68.0 °F 94% 29.90 in 10.0 mi South 9.2 mph - N/A   Clear
6:54 AM 69.8 °F - 68.0 °F 94% 29.92 in 6.0 mi SSW 10.4 mph - 0.00 in Rain Rain
7:54 AM 69.8 °F - 68.0 °F 94% 29.92 in 10.0 mi South 8.1 mph - 0.06 in   Partly Cloudy
8:54 AM 73.4 °F - 69.8 °F 88% 29.94 in 10.0 mi South 8.1 mph - N/A   Partly Cloudy
9:54 AM 78.8 °F - 71.6 °F 78% 29.94 in 10.0 mi SSW 15.0 mph 21.9 mph N/A   Partly Cloudy
10:54 AM 78.1 °F - 70.0 °F 76% 29.94 in 10.0 mi SW 15.0 mph 21.9 mph 0.00 in   Scattered Clouds
11:54 AM 79.0 °F - 69.1 °F 72% 29.92 in 10.0 mi SW 12.7 mph - 0.00 in   Mostly Cloudy
12:54 PM 79.0 °F - 69.1 °F 72% 29.88 in 10.0 mi SSW 15.0 mph 24.2 mph 0.00 in   Scattered Clouds
1:54 PM 75.0 °F - 68.0 °F 79% 29.87 in 10.0 mi South 8.1 mph - 0.00 in   Mostly Cloudy
2:54 PM 80.1 °F 82.7 °F 68.0 °F 67% 29.85 in 10.0 mi SW 15.0 mph 23.0 mph N/A   Scattered Clouds
3:54 PM 81.0 °F 83.3 °F 66.9 °F 62% 29.85 in 10.0 mi SSW 19.6 mph - 0.00 in   Scattered Clouds
4:54 PM 78.1 °F - 66.9 °F 68% 29.86 in 10.0 mi SSW 16.1 mph - N/A   Scattered Clouds
5:54 PM 77.0 °F - 68.0 °F 74% 29.88 in 10.0 mi SW 8.1 mph - N/A   Mostly Cloudy
6:54 PM 73.9 °F - 69.1 °F 85% 29.90 in 10.0 mi South 6.9 mph - N/A   Scattered Clouds
7:54 PM 72.0 °F - 64.0 °F 76% 29.91 in 10.0 mi Variable 3.5 mph - 0.00 in Rain Light Rain
8:54 PM 73.0 °F - 64.9 °F 76% 29.91 in 10.0 mi South 5.8 mph - 0.00 in   Mostly Cloudy
9:54 PM 71.1 °F - 64.0 °F 78% 29.92 in 10.0 mi SSW 3.5 mph - N/A   Overcast
10:54 PM 71.1 °F - 64.9 °F 81% 29.93 in 10.0 mi Calm Calm - N/A   Overcast
11:54 PM 70.0 °F - 64.9 °F 84% 29.91 in 10.0 mi SSE 5.8 mph - N/A   Mostly Cloudy